Terminal Aerodrome Forecast
Issued by NWS

Home | Current Version | Previous Version | Graphics & Text | Print | Product List | Glossary On
Versions: 1 2 3 4 5 6 7 8 9 10 11 12 13 14 15 16 17 18
422
FTUS43 KBIS 030520
TAFDIK
TAF
KDIK 030520Z 0306/0406 VRB03KT P6SM BKN100
     FM031200 28012KT P6SM OVC035=

USA.gov is the U.S. government's official web portal to all federal, state and local government web resources and services.